owner,sensor,date,latitude,longitude,vertical_datum,wind_speed,wind_to_direction,wind_speed_of_gust,qcFlag 
TABS,ioos:station:wmo:42043:1,2005-04-30T00:00:00Z,28.9818,-94.9186,4.0,0.435660418,9.245880666,1.05,'11111222,11111222,11111222' 
TABS,ioos:station:wmo:42043:1,2005-04-30T00:30:00Z,28.9818,-94.9186,4.0,0.288444102,33.68977829,1.07,'11111222,11111222,11111222' 
TABS,ioos:station:wmo:42043:1,2005-04-30T01:00:00Z,28.9818,-94.9186,4.0,3.40261664,108.3288293,6.49,'11111222,11111222,11111222' 
TABS,ioos:station:wmo:42043:1,2005-04-30T01:30:00Z,28.9818,-94.9186,4.0,5.753129583,104.4955666,7.25,'11111222,11111222,11111222' 
TABS,ioos:station:wmo:42043:1,2005-04-30T02:00:00Z,28.9818,-94.9186,4.0,5.624811108,104.7283953,7.06,'11111222,11111222,11111222' 
TABS,ioos:station:wmo:42043:1,2005-04-30T02:30:00Z,28.9818,-94.9186,4.0,5.409695001,105.2183472,6.56,'11111222,11111222,11111222' 
TABS,ioos:station:wmo:42043:1,2005-04-30T03:00:00Z,28.9818,-94.9186,4.0,4.71815642,108.6657368,5.91,'11111222,11111222,11111222' 
TABS,ioos:station:wmo:42043:1,2005-04-30T03:30:00Z,28.9818,-94.9186,4.0,4.378881136,115.5705907,5.51,'11111222,11111222,11111222' 
TABS,ioos:station:wmo:42043:1,2005-04-30T04:00:00Z,28.9818,-94.9186,4.0,4.882714409,104.833539,5.84,'11111222,11111222,11111222' 
TABS,ioos:station:wmo:42043:1,2005-04-30T04:30:00Z,28.9818,-94.9186,4.0,5.995039616,110.0977942,7.56,'11111222,11111222,11111222' 
TABS,ioos:station:wmo:42043:1,2005-04-30T05:00:00Z,28.9818,-94.9186,4.0,5.848221952,109.5817063,7.16,'11111222,11111222,11111222' 
TABS,ioos:station:wmo:42043:1,2005-04-30T05:30:00Z,28.9818,-94.9186,4.0,4.300813876,108.0140427,5.34,'11111222,11111222,11111222' 
TABS,ioos:station:wmo:42043:1,2005-04-30T06:00:00Z,28.9818,-94.9186,4.0,2.841636852,97.07540259,3.78,'11111222,11111222,11111222' 
TABS,ioos:station:wmo:42043:1,2005-04-30T06:30:00Z,28.9818,-94.9186,4.0,0.646606526,39.35145015,1.37,'11111222,11111222,11111222' 
TABS,ioos:station:wmo:42043:1,2005-04-30T07:00:00Z,28.9818,-94.9186,4.0,2.341815535,43.09629991,3.11,'11111222,11111222,11111222' 
TABS,ioos:station:wmo:42043:1,2005-04-30T07:30:00Z,28.9818,-94.9186,4.0,2.711844391,20.50632995,3.61,'11111222,11111222,11111222' 
TABS,ioos:station:wmo:42043:1,2005-04-30T08:00:00Z,28.9818,-94.9186,4.0,2.453120462,67.72112933,3.12,'11111222,11111222,11111222' 
TABS,ioos:station:wmo:42043:1,2005-04-30T08:30:00Z,28.9818,-94.9186,4.0,3.365070579,83.00129274,4.39,'11111222,11111222,11111222' 
TABS,ioos:station:wmo:42043:1,2005-04-30T09:00:00Z,28.9818,-94.9186,4.0,2.396038397,85.93100892,3.21,'11111222,11111222,11111222' 
TABS,ioos:station:wmo:42043:1,2005-04-30T09:30:00Z,28.9818,-94.9186,4.0,3.179213739,97.77368546,4.44,'11111222,11111222,11111222' 
TABS,ioos:station:wmo:42043:1,2005-04-30T10:00:00Z,28.9818,-94.9186,4.0,2.703793631,288.0998473,3.48,'11111222,11111222,11111222' 
TABS,ioos:station:wmo:42043:1,2005-04-30T10:30:00Z,28.9818,-94.9186,4.0,4.554119015,278.8417939,5.9,'11111222,11111222,11111222' 
TABS,ioos:station:wmo:42043:1,2005-04-30T11:00:00Z,28.9818,-94.9186,4.0,7.084546563,295.7692674,11.19,'11111222,11111222,11111222' 
TABS,ioos:station:wmo:42043:1,2005-04-30T11:30:00Z,28.9818,-94.9186,4.0,10.14270674,303.783993,12.65,'11111222,11111222,11111222' 
TABS,ioos:station:wmo:42043:1,2005-04-30T12:00:00Z,28.9818,-94.9186,4.0,10.51412859,307.1531812,13.01,'11111222,11111222,11111222' 
TABS,ioos:station:wmo:42043:1,2005-04-30T12:30:00Z,28.9818,-94.9186,4.0,11.14576153,316.0177306,13.95,'11111222,11111222,11111222' 
TABS,ioos:station:wmo:42043:1,2005-04-30T13:00:00Z,28.9818,-94.9186,4.0,10.89543482,300.6841074,14.15,'11111222,11111222,11111222' 
TABS,ioos:station:wmo:42043:1,2005-04-30T13:30:00Z,28.9818,-94.9186,4.0,12.32592796,298.2282791,15.29,'11111222,11111222,11111222' 
TABS,ioos:station:wmo:42043:1,2005-04-30T14:00:00Z,28.9818,-94.9186,4.0,12.69995669,298.6031917,16.44,'11111222,11111222,11111222' 
TABS,ioos:station:wmo:42043:1,2005-04-30T14:30:00Z,28.9818,-94.9186,4.0,11.93623475,299.2923148,15.16,'11111222,11111222,11111222' 
TABS,ioos:station:wmo:42043:1,2005-04-30T15:00:00Z,28.9818,-94.9186,4.0,13.12932976,312.4996247,17.41,'11111222,11111222,11111222' 
TABS,ioos:station:wmo:42043:1,2005-04-30T15:30:00Z,28.9818,-94.9186,4.0,12.3261105,312.8958346,15.44,'11111222,11111222,11111222' 
TABS,ioos:station:wmo:42043:1,2005-04-30T16:00:00Z,28.9818,-94.9186,4.0,11.98220347,303.0799193,15.31,'11111222,11111222,11111222' 
TABS,ioos:station:wmo:42043:1,2005-04-30T16:30:00Z,28.9818,-94.9186,4.0,12.07182671,307.8665696,14.99,'11111222,11111222,11111222' 
TABS,ioos:station:wmo:42043:1,2005-04-30T17:00:00Z,28.9818,-94.9186,4.0,10.38792568,309.3746918,13.31,'11111222,11111222,11111222' 
TABS,ioos:station:wmo:42043:1,2005-04-30T17:30:00Z,28.9818,-94.9186,4.0,11.17467225,317.357156,14.12,'11111222,11111222,11111222' 
TABS,ioos:station:wmo:42043:1,2005-04-30T18:00:00Z,28.9818,-94.9186,4.0,11.9648903,325.0745424,15.54,'11111222,11111222,11111222' 
TABS,ioos:station:wmo:42043:1,2005-04-30T18:30:00Z,28.9818,-94.9186,4.0,11.24005783,324.6695936,15.29,'11111222,11111222,11111222' 
TABS,ioos:station:wmo:42043:1,2005-04-30T19:00:00Z,28.9818,-94.9186,4.0,10.14183908,342.0829781,12.77,'11111222,11111222,11111222' 
TABS,ioos:station:wmo:42043:1,2005-04-30T19:30:00Z,28.9818,-94.9186,4.0,8.637528582,356.3489838,10.52,'11111222,11111222,11111222' 
TABS,ioos:station:wmo:42043:1,2005-04-30T20:00:00Z,28.9818,-94.9186,4.0,8.302656201,1.449129192,10.57,'11111222,11111222,11111222' 
TABS,ioos:station:wmo:42043:1,2005-04-30T20:30:00Z,28.9818,-94.9186,4.0,7.156046394,7.790179361,8.76,'11111222,11111222,11111222' 
TABS,ioos:station:wmo:42043:1,2005-04-30T21:00:00Z,28.9818,-94.9186,4.0,6.668882965,354.665362,8.36,'11111222,11111222,11111222' 
TABS,ioos:station:wmo:42043:1,2005-04-30T21:30:00Z,28.9818,-94.9186,4.0,5.424850228,349.269863,7.34,'11111222,11111222,11111222' 
TABS,ioos:station:wmo:42043:1,2005-04-30T22:00:00Z,28.9818,-94.9186,4.0,7.610026281,323.2805576,10.5,'11111222,11111222,11111222' 
TABS,ioos:station:wmo:42043:1,2005-04-30T22:30:00Z,28.9818,-94.9186,4.0,9.738218523,315.9568137,12.09,'11111222,11111222,11111222' 
TABS,ioos:station:wmo:42043:1,2005-04-30T23:00:00Z,28.9818,-94.9186,4.0,9.810346579,313.6369534,11.86,'11111222,11111222,11111222' 
TABS,ioos:station:wmo:42043:1,2005-04-30T23:30:00Z,28.9818,-94.9186,4.0,9.568766901,321.321369,12.36,'11111222,11111222,11111222' 
 
DISCLAIMER: The Gulf of Mexico Coastal and Ocean Observing (GCOOS) Data Portal aggregates data from the regional data providers for the convenience of all data users. Data published on this website should not be used for navigation or certain other uses as we cannot guarantee data accuracy or availability. The data and delivery services are provided 'as is' without warranty of any kind. Data Source: Gulf of Mexico Coastal Ocean Observing System Data Portal (http://data.gcoos.org/) 
